Overview Statistics Trail Chart Weather Telemetry Raw packets
 

This is the latest recevied weather packets stored in our database for station/object DL4MGC-10. If no packets are shown the sender has not sent any weather packets the latest 10 day(s).

<< 26 27 28 29 30 31 32 >>
Time Temp. Humidity Pressure Rain* Wind** Luminosity Snow
1788081996 25.56° C 64% 1017.2 hPa - - - -
1788081096 24.44° C 67% 1017.3 hPa - - - -
1788080196 24.44° C 68% 1017.3 hPa - - - -
1788079296 24.44° C 67% 1017.3 hPa - - - -
1788078396 23.89° C 70% 1017.3 hPa - - - -
1788077496 24.44° C 68% 1017.2 hPa - - - -
1788076595 23.89° C 71% 1017.4 hPa - - - -
1788075695 23.33° C 72% 1017.4 hPa - - - -
1788074795 22.22° C 75% 1017.2 hPa - - - -
1788073895 21.67° C 74% 1017.2 hPa - - - -
1788072994 21.67° C 78% 1017.2 hPa - - - -
1788072094 21.67° C 79% 1017.1 hPa - - - -
1788071194 20.56° C 80% 1017.2 hPa - - - -
1788070294 19.44° C 84% 1017.2 hPa - - - -
1788069394 19.44° C 85% 1017.1 hPa - - - -
1788068494 19.44° C 83% 1017 hPa - - - -
1788067594 18.89° C 85% 1017 hPa - - - -
1788066694 18.89° C 84% 1016.9 hPa - - - -
1788065794 18.89° C 87% 1016.9 hPa - - - -
1788064893 18.89° C 88% 1016.8 hPa - - - -
1788063993 18.33° C 87% 1016.8 hPa - - - -
1788063093 18.89° C 89% 1016.8 hPa - - - -
1788062193 18.33° C 90% 1016.8 hPa - - - -
1788061293 18.33° C 89% 1016.9 hPa - - - -
1788060393 18.33° C 86% 1016.8 hPa - - - -

* Rain since midnight (hover to see other rain measurements)
** Current wind speed in m/s (hover to see current wind gust speed)